TimeEDT,TemperatureF,Dew PointF,Humidity,Sea Level PressureIn,VisibilityMPH,Wind Direction,Wind SpeedMPH,Gust SpeedMPH,PrecipitationIn,Events,Conditions,WindDirDegrees,DateUTC
12:00 AM,41.0,41.0,100,30.20,9.0,Calm,Calm,-,N/A,,Clear,0,2013-10-11 04:00:00
1:00 AM,39.2,39.2,100,30.19,9.0,SW,2.3,-,N/A,,Clear,230,2013-10-11 05:00:00
2:00 AM,38,37,97,30.21,9,SW,2.3,,,,,230,2013-10-11 06:00:00
2:00 AM,37.4,37.4,100,30.21,9.0,SW,2.3,-,N/A,,Clear,230,2013-10-11 06:00:00
3:00 AM,37.4,37.4,100,30.21,9.0,SW,2.3,-,N/A,,Clear,230,2013-10-11 07:00:00
3:25 AM,35.6,35.6,100,30.19,9.0,SW,3.5,-,N/A,,Mostly Cloudy,230,2013-10-11 07:25:00
3:31 AM,37.4,35.6,93,30.19,9.0,SW,2.3,-,N/A,,Partly Cloudy,230,2013-10-11 07:31:00
3:34 AM,37.4,35.6,93,30.19,9.0,WSW,2.3,-,N/A,,Mostly Cloudy,240,2013-10-11 07:34:00
3:39 AM,37.4,35.6,93,30.19,9.0,WSW,3.5,-,N/A,,Partly Cloudy,240,2013-10-11 07:39:00
4:00 AM,35.6,35.6,100,30.20,3.5,SW,3.5,-,N/A,,Partly Cloudy,230,2013-10-11 08:00:00
5:00 AM,35,34,95,30.22,9,SW,2.3,,,,,230,2013-10-11 09:00:00
5:00 AM,35.6,33.8,93,30.22,9.0,WSW,2.3,-,N/A,,Clear,240,2013-10-11 09:00:00
5:30 AM,35.6,35.6,100,30.21,2.0,SW,2.3,-,N/A,,Clear,230,2013-10-11 09:30:00
5:31 AM,35.6,35.6,100,30.21,1.4,SW,2.3,-,N/A,,Clear,230,2013-10-11 09:31:00
5:35 AM,35.6,35.6,100,30.21,1.0,SW,2.3,-,N/A,,Clear,230,2013-10-11 09:35:00
5:44 AM,35.6,35.6,100,30.21,1.5,WSW,2.3,-,N/A,,Clear,250,2013-10-11 09:44:00
5:56 AM,37.4,37.4,100,30.21,9.0,West,2.3,-,N/A,,Clear,270,2013-10-11 09:56:00
6:00 AM,35.6,35.6,100,30.22,8.0,WSW,2.3,-,N/A,,Clear,240,2013-10-11 10:00:00
7:00 AM,35.6,35.6,100,30.23,9.0,SSW,2.3,-,N/A,,Clear,200,2013-10-11 11:00:00
8:00 AM,38,37,96,30.25,5,West,3.5,,,,,280,2013-10-11 12:00:00
8:00 AM,37.4,37.4,100,30.25,5.0,West,3.5,-,N/A,,Clear,280,2013-10-11 12:00:00
8:23 AM,39.2,39.2,100,30.23,7.0,West,2.3,-,N/A,,Mostly Cloudy,270,2013-10-11 12:23:00
8:29 AM,41.0,41.0,100,30.23,9.0,West,3.5,-,N/A,,Scattered Clouds,260,2013-10-11 12:29:00
9:00 AM,44.6,42.8,93,30.25,9.0,West,2.3,-,N/A,,Clear,270,2013-10-11 13:00:00
10:00 AM,51.8,48.2,88,30.25,9.0,NW,2.3,-,N/A,,Clear,310,2013-10-11 14:00:00
11:00 AM,56,48,66,30.24,9,WNW,2.3,,,,,300,2013-10-11 15:00:00
11:00 AM,55.4,48.2,77,30.24,9.0,NNW,2.3,-,N/A,,Clear,340,2013-10-11 15:00:00
12:00 PM,60.8,53.6,77,30.23,9.0,NNE,2.3,-,N/A,,Clear,30,2013-10-11 16:00:00
1:00 PM,64.4,50.0,59,30.21,9.0,Calm,Calm,-,N/A,,Clear,0,2013-10-11 17:00:00
2:00 PM,69,47,35,30.19,9,SE,2.3,,,,,130,2013-10-11 18:00:00
2:00 PM,68.0,48.2,49,30.19,9.0,SE,2.3,-,N/A,,Clear,130,2013-10-11 18:00:00
3:00 PM,69.8,48.2,46,30.18,9.0,Calm,Calm,-,N/A,,Clear,0,2013-10-11 19:00:00
4:00 PM,73.4,48.2,41,30.17,9.0,Calm,Calm,-,N/A,,Clear,0,2013-10-11 20:00:00
5:00 PM,73,46,27,30.17,9,Calm,Calm,,,,,,2013-10-11 21:00:00
5:00 PM,73.4,46.4,38,30.17,9.0,Calm,Calm,-,N/A,,Clear,0,2013-10-11 21:00:00
6:00 PM,64.4,53.6,68,30.17,9.0,Calm,Calm,-,N/A,,Clear,0,2013-10-11 22:00:00
7:00 PM,57.2,50.0,77,30.18,9.0,Calm,Calm,-,N/A,,Clear,0,2013-10-11 23:00:00
8:00 PM,53,49,84,30.19,9,SSW,2.3,,,,,200,2013-10-12 00:00:00
8:00 PM,51.8,50.0,94,30.19,9.0,Calm,Calm,-,N/A,,Clear,0,2013-10-12 00:00:00
9:00 PM,50.0,46.4,87,30.19,9.0,Calm,Calm,-,N/A,,Clear,0,2013-10-12 01:00:00
10:00 PM,46.4,46.4,100,30.20,9.0,WSW,2.3,-,N/A,,Clear,240,2013-10-12 02:00:00
11:00 PM,44,43,94,30.19,9,SW,2.3,,,,,220,2013-10-12 03:00:00
11:00 PM,44.6,42.8,93,30.19,9.0,SSW,2.3,-,N/A,,Clear,200,2013-10-12 03:00:00